Weather History for Akron Canton, OH

Change the Weather History Date:

Monday, March 5, 2012

  Actual Average Record
Temperature  
Mean Temperature 24 °F 34 °F  
Max Temperature 29 °F 42 °F 77 °F (1983)
Min Temperature 19 °F 25 °F 5 °F (1926)
Degree Days  
Heating Degree Days 41 31  
Month to date heating degree days 140 160  
Since 1 July heating degree days 3977 4704  
Cooling Degree Days 0 0  
Month to date cooling degree days 0 0  
Year to date cooling degree days 0 0  
Moisture  
Dew Point 18 °F    
Average Humidity 75    
Maximum Humidity 92    
Minimum Humidity 58    
Precipitation  
Precipitation 0.05 in 0.09 in 0.89 in (2011)
Month to date precipitation 0.90 0.43  
Year to date precipitation 6.73 5.35  
Snow  
Snow 1.10 in 0.30 in - ()
Month to date snowfall 3.5 1.7  
Since 1 July snowfall 30.9 38.2  
Snow Depth 3.00 in    
Sea Level Pressure  
Sea Level Pressure 30.20 in    
Wind  
Wind Speed 8 mph (NW)    
Max Wind Speed 17 mph    
Max Gust Speed 21 mph    
Visibility 6 miles    
Events Snow    
T = Trace of Precipitation, MM = Missing Value Source: NWS Daily Summary

Daily Weather History Graph

Daily Weather History Graph

Search for Another Location

Airport:

Trip Planner

Search our weather history database for the weather conditions in past years. The results will help you decide how hot, cold, wet, or windy it might be!

Date:

Astronomy

Mar. 05, 2012 Rise Set
Actual Time 6:52 AM EST 6:21 PM EST
Civil Twilight 6:25 AM EST 6:49 PM EST
Nautical Twilight 5:53 AM EST 7:21 PM EST
Astronomical Twilight 5:21 AM EST 7:53 PM EST
Moon 3:37 PM EST (3/5) 4:52 AM EST (3/5)
Length of Visible Light 12h 24m
Length of Day
11h 29m
Waxing Gibbous, 91% of the Moon is Illuminated
Mar 5
Waxing Gibbous
Mar 8
Full
Mar 14
Last Quarter
Mar 22
New
Mar 30
First Quarter

Hourly Weather History & Observations

Time (EST) Temp. Windchill Dew Point Humidity Pressure Visibility Wind Dir Wind Speed Gust Speed Precip Events Conditions
12:51 AM 27.0 °F 20.5 °F 23.0 °F 85% 29.88 in 4.0 mi WSW 5.8 mph - 0.00 in Snow Light Snow
1:51 AM 27.0 °F 19.5 °F 23.0 °F 85% 29.88 in 4.0 mi WSW 6.9 mph - 0.00 in Snow Light Snow
2:51 AM 27.0 °F 20.5 °F 23.0 °F 85% 29.89 in 6.0 mi West 5.8 mph - N/A   Overcast
3:51 AM 27.0 °F 23.0 °F 24.1 °F 89% 29.89 in 6.0 mi WNW 3.5 mph - N/A   Overcast
4:51 AM 25.0 °F 16.3 °F 19.9 °F 81% 29.93 in 8.0 mi NE 8.1 mph - 0.00 in Snow Light Snow
5:51 AM 24.1 °F 14.4 °F 19.0 °F 81% 29.97 in 7.0 mi NE 9.2 mph - 0.00 in Snow Light Snow
6:51 AM 24.1 °F 15.2 °F 19.9 °F 84% 30.02 in 3.0 mi NNE 8.1 mph - 0.00 in Snow Light Snow
7:12 AM 24.8 °F 14.6 °F 19.4 °F 80% 29.99 in 1.5 mi North 10.4 mph - 0.01 in Snow Light Snow
7:51 AM 24.1 °F 13.1 °F 19.0 °F 81% 30.07 in 1.5 mi North 11.5 mph - 0.02 in Snow Light Snow
8:36 AM 24.8 °F 14.6 °F 17.6 °F 74% 30.06 in 1.5 mi North 10.4 mph - 0.01 in Snow Light Snow
8:51 AM 24.1 °F 13.1 °F 18.0 °F 77% 30.12 in 1.5 mi North 11.5 mph - 0.01 in Snow Light Snow
9:35 AM 26.6 °F 16.8 °F 15.8 °F 64% 30.10 in 7.0 mi North 10.4 mph - 0.00 in   Mostly Cloudy
9:51 AM 26.1 °F 15.0 °F 16.0 °F 66% 30.17 in 10.0 mi NNW 12.7 mph - 0.00 in   Mostly Cloudy
10:51 AM 27.0 °F 18.0 °F 16.0 °F 63% 30.19 in 10.0 mi NNW 9.2 mph - N/A   Mostly Cloudy
11:19 AM 26.6 °F 18.2 °F 19.4 °F 74% 30.16 in 2.0 mi North 8.1 mph - 0.00 in Snow Light Snow
11:40 AM 28.4 °F 19.7 °F 17.6 °F 64% 30.18 in 5.0 mi NNW 9.2 mph - 0.00 in Snow Light Snow
11:51 AM 27.0 °F 16.7 °F 16.0 °F 63% 30.23 in 5.0 mi NNW 11.5 mph - 0.00 in Snow Light Snow
12:51 PM 28.0 °F 18.1 °F 17.1 °F 63% 30.26 in 7.0 mi NW 11.5 mph 18.4 mph 0.00 in Snow Light Snow
1:51 PM 28.0 °F 20.0 °F 16.0 °F 61% 30.27 in 10.0 mi WNW 8.1 mph - 0.00 in Snow Light Snow
2:51 PM 28.9 °F 18.6 °F 18.0 °F 64% 30.30 in 10.0 mi WNW 12.7 mph - 0.00 in Snow Light Snow
3:32 PM 28.4 °F 20.4 °F 19.4 °F 69% 30.28 in 2.5 mi WNW 8.1 mph - 0.00 in Snow Light Snow
3:51 PM 27.0 °F 19.5 °F 19.9 °F 75% 30.34 in 2.0 mi NW 6.9 mph - 0.00 in Snow Light Snow
4:11 PM 28.4 °F 19.1 °F 19.4 °F 69% 30.30 in 1.5 mi WNW 10.4 mph - 0.00 in Snow Light Snow
4:51 PM 27.0 °F 16.1 °F 18.0 °F 69% 30.37 in 2.5 mi NW 12.7 mph - 0.00 in Snow Light Snow
5:23 PM 26.6 °F 18.2 °F 21.2 °F 80% 30.33 in 1.2 mi WNW 8.1 mph - 0.01 in Snow Light Snow
5:51 PM 26.1 °F 15.6 °F 19.0 °F 75% 30.40 in 2.5 mi WNW 11.5 mph - 0.01 in Snow Light Snow
5:53 PM 26.6 °F 16.8 °F 17.6 °F 69% 30.35 in 6.0 mi West 10.4 mph - 0.00 in Snow Light Snow
6:51 PM 25.0 °F 15.5 °F 16.0 °F 69% 30.43 in 6.0 mi WNW 9.2 mph - 0.00 in Snow Light Snow
7:51 PM 23.0 °F 13.9 °F 12.9 °F 65% 30.45 in 10.0 mi West 8.1 mph - 0.00 in   Scattered Clouds
8:51 PM 21.9 °F - 14.0 °F 72% 30.46 in 10.0 mi Calm Calm - N/A   Scattered Clouds
9:51 PM 19.9 °F 14.9 °F 12.9 °F 74% 30.48 in 10.0 mi SSW 3.5 mph - N/A   Scattered Clouds
10:51 PM 19.9 °F 14.9 °F 12.9 °F 74% 30.48 in 10.0 mi South 3.5 mph - N/A   Scattered Clouds
11:51 PM 19.0 °F 12.3 °F 12.9 °F 77% 30.49 in 9.0 mi South 4.6 mph - N/A   Mostly Cloudy